[[{"header":{"parameterUnit":"m.s-1","parameterCategory":2,"la1":30.2992,"la2":30.254,"lo1":-89.0895,"lo2":-89.0443,"dy":0.0025,"dx":0.0025,"nx":19,"ny":19,"refTime":"2026-05-12T09:00:00:Z","depth":"0","parameterNumber":2,"parameterNumberName":"U-component_of_CURRENTS"},"data":[0,0,0,0.1362,0.1363,0.1397,0.1398,0.1409,0.1409,0,0,0,0,0,0,0,0,0,0,0,0.1347,0.1347,0.1362,0.1363,0.1397,0.1398,0.1409,0.1409,0,0,0,0,0,0,0,0,0,0,0,0.1347,0.1347,0.1347,0.1363,0.1397,0.1398,0.1409,0.139,0,0,0,0,0,0,0,0,0,0,0.136,0.1352,0.1347,0.1348,0.1363,0.1397,0.1398,0.139,0.1391,0.1385,0,0.1393,0,0.1404,0.1409,0.1409,0,0,0,0.1359,0.1351,0.1362,0.1348,0.1364,0.1397,0.1381,0.1391,0.1393,0.1387,0.1393,0.1394,0.1404,0.1409,0.1409,0.1441,0.1441,0,0,0.1357,0.1351,0.136,0.1363,0.1375,0.138,0.1382,0.1392,0.1393,0.1393,0.1394,0.1404,0.1409,0.1409,0.1441,0.1441,0,0,0,0.1354,0.1349,0.1361,0.1362,0.1373,0.1381,0.1383,0.1393,0.1397,0.1394,0.1404,0.1409,0.141,0.144,0.1441,0.1484,0,0,0,0.1353,0.1348,0.136,0.1356,0.1373,0.1388,0.1384,0.1396,0.1398,0.1404,0.1409,0.141,0.144,0.144,0.1482,0.1495,0,0,0,0.1345,0.1347,0.1352,0.1355,0.1373,0.1388,0.1393,0.1397,0.1404,0.1409,0.141,0.144,0.144,0.1481,0.1493,0.1543,0,0,0,0.1335,0.1344,0.1352,0.1368,0.1372,0.1402,0.1393,0.141,0.1416,0.1409,0.144,0.1441,0.148,0.1491,0.154,0.1645,0.1663,0,0,0.1341,0.1345,0.1356,0.1364,0.1392,0.1397,0.1431,0.1431,0.1425,0.1433,0.1434,0.1483,0.1492,0.1542,0.1686,0.1704,0,0,0,0.1354,0.1361,0.1371,0.1391,0.1412,0.1438,0.1445,0.1457,0.1476,0.1433,0.1485,0.149,0.152,0.1578,0.1592,0.1815,0.1444,0.1444,0.1444,0.1328,0.1355,0.1378,0.1412,0.1433,0.1467,0.1496,0.1513,0.1499,0.1519,0.1528,0.1596,0.1659,0.167,0.1898,0.1533,0.1533,0.1533,0.1533,0.1338,0.1352,0.139,0.1422,0.1454,0.1482,0.1541,0.1553,0.1608,0.1575,0.1603,0.1624,0.1689,0.1926,0.1536,0.1536,0.1535,0.1535,0.1535,0.1316,0.133,0.1356,0.1406,0.1445,0.1491,0.1549,0.1599,0.164,0.1674,0.1745,0.1746,0.1953,0.1692,0.1693,0.1693,0.1693,0.1694,0.1694,0.1278,0.1311,0.1341,0.1391,0.1415,0.1466,0.156,0.162,0.1749,0.1801,0.1803,0.2021,0.1645,0.1638,0.1698,0.1697,0.1697,0.1696,0.1696,0.1273,0.1277,0.1331,0.1357,0.1417,0.1472,0.1549,0.1737,0.1821,0.1909,0.2243,0.1881,0.188,0.1869,0.1868,0.1984,0.1984,0.1984,0.1984,0.126,0.1268,0.1342,0.1385,0.142,0.1484,0.1627,0.1826,0.2202,0.2451,0.2487,0.2511,0.2489,0.2523,0.2498,0.2509,0.2786,0.2787,0.2788,0.1276,0.13,0.1352,0.1396,0.143,0.1505,0.1672,0.1958,0.2567,0.284,0.2784,0.275,0.2797,0.2745,0.28,0.2747,0.2761,0,0]},{"header":{"parameterUnit":"m.s-1","parameterCategory":2,"la1":30.2992,"la2":30.254,"lo1":-89.0895,"lo2":-89.0443,"dy":0.0025,"dx":0.0025,"nx":19,"ny":19,"refTime":"2026-05-12T09:00:00:Z","depth":"0","parameterNumber":3,"parameterNumberName":"V-component_of_CURRENTS"},"data":[0,0,0,-0.0631,-0.0635,-0.0858,-0.0859,-0.108,-0.1082,0,0,0,0,0,0,0,0,0,0,0,-0.054,-0.0541,-0.0631,-0.0636,-0.0857,-0.0859,-0.108,-0.1082,0,0,0,0,0,0,0,0,0,0,0,-0.0539,-0.0541,-0.0542,-0.0636,-0.0857,-0.0859,-0.108,-0.0931,0,0,0,0,0,0,0,0,0,0,-0.0724,-0.0633,-0.054,-0.0542,-0.0638,-0.0857,-0.0859,-0.0924,-0.094,-0.0958,0,-0.098,0,-0.1036,-0.1094,-0.1095,0,0,0,-0.0648,-0.062,-0.0691,-0.0542,-0.0639,-0.0857,-0.0761,-0.0934,-0.0951,-0.0978,-0.0983,-0.0993,-0.104,-0.1096,-0.1096,-0.1164,-0.1163,0,0,-0.0636,-0.0575,-0.0679,-0.0702,-0.068,-0.0754,-0.0768,-0.0945,-0.0947,-0.0984,-0.0999,-0.1044,-0.1097,-0.1098,-0.1164,-0.1163,0,0,0,-0.0592,-0.0566,-0.0635,-0.0691,-0.0738,-0.076,-0.0776,-0.0939,-0.0965,-0.1002,-0.1046,-0.1098,-0.11,-0.1165,-0.1164,-0.1004,0,0,0,-0.0585,-0.0541,-0.0628,-0.0594,-0.0734,-0.0848,-0.0765,-0.0953,-0.0975,-0.1045,-0.1098,-0.1102,-0.1166,-0.1164,-0.101,-0.092,0,0,0,-0.0533,-0.0535,-0.0558,-0.059,-0.0684,-0.0846,-0.0884,-0.0959,-0.1002,-0.1095,-0.1102,-0.1166,-0.1165,-0.1015,-0.093,-0.0842,0,0,0,-0.0468,-0.0473,-0.0556,-0.0574,-0.0682,-0.0777,-0.0883,-0.0967,-0.1036,-0.1099,-0.1165,-0.1164,-0.1016,-0.0936,-0.0849,-0.0687,-0.0644,0,0,-0.0436,-0.0467,-0.048,-0.0559,-0.0611,-0.0749,-0.0782,-0.0919,-0.1018,-0.1107,-0.111,-0.1008,-0.0931,-0.0843,-0.0599,-0.0558,0,0,0,-0.0444,-0.0445,-0.0478,-0.053,-0.0629,-0.0679,-0.0828,-0.0874,-0.0952,-0.1053,-0.1022,-0.0978,-0.0928,-0.0845,-0.0813,-0.0817,-0.1157,-0.1157,-0.1157,-0.0311,-0.0378,-0.0384,-0.0465,-0.0519,-0.0638,-0.0666,-0.0754,-0.0875,-0.0867,-0.0858,-0.0695,-0.0605,-0.0579,-0.0586,-0.0883,-0.0882,-0.0882,-0.0882,-0.0229,-0.0221,-0.0295,-0.0321,-0.0388,-0.0422,-0.0515,-0.0576,-0.0594,-0.0717,-0.0677,-0.0694,-0.0534,-0.0554,-0.0872,-0.0873,-0.0875,-0.0876,-0.0876,-0.0117,-0.0118,-0.0149,-0.0176,-0.0188,-0.0281,-0.0235,-0.0331,-0.0429,-0.0394,-0.0347,-0.0348,-0.0357,-0.0389,-0.0389,-0.0388,-0.0387,-0.0386,-0.0386,0.0021,-0.0013,0.0013,-0.0029,-0.0035,-0.0028,-0.0071,-0.0057,-0.0071,-0.0142,-0.0142,-0.0281,-0.0546,-0.0554,-0.0373,-0.0376,-0.0377,-0.0378,-0.0379,0.0157,0.0139,0.018,0.0182,0.0178,0.0271,0.0221,0.0316,0.0294,0.0331,0.015,-0.0016,-0.0051,-0.0078,-0.0076,0.0217,0.0217,0.0218,0.0218,0.0267,0.0254,0.0324,0.0349,0.0389,0.0409,0.0655,0.0721,0.0604,0.0549,0.039,0.0312,0.0288,0.0264,0.0229,0.0232,0.0597,0.0597,0.0597,0.0359,0.0363,0.0441,0.0443,0.047,0.0604,0.0897,0.113,0.0912,0.0602,0.036,0.0344,0.0205,0.0167,0.0097,0.0049,0.0039,0,0]}],[{"header":{"parameterUnit":"m.s-1","parameterCategory":2,"la1":30.2992,"la2":30.254,"lo1":-89.0895,"lo2":-89.0443,"dy":0.0025,"dx":0.0025,"nx":19,"ny":19,"refTime":"2026-05-12T09:00:00:Z","depth":"2","parameterNumber":2,"parameterNumberName":"U-component_of_CURRENTS"},"data":[0,0,0,0.0763,0.0764,0.0812,0.0812,0.0801,0.0801,0,0,0,0,0,0,0,0,0,0,0,0.0739,0.0739,0.0763,0.0764,0.0812,0.0812,0.0801,0.0801,0,0,0,0,0,0,0,0,0,0,0,0.0739,0.0739,0.0739,0.0764,0.0812,0.0812,0.0801,0.0781,0,0,0,0,0,0,0,0,0,0,0.0743,0.0731,0.0739,0.0739,0.0764,0.0812,0.0812,0.0781,0.0783,0.076,0,0.0769,0,0.0788,0.0799,0.0799,0,0,0,0.0758,0.073,0.0748,0.0739,0.0765,0.0812,0.0789,0.0783,0.0784,0.0761,0.0769,0.077,0.0788,0.0799,0.0798,0.0816,0.0816,0,0,0.0756,0.0741,0.0747,0.0749,0.0778,0.0787,0.079,0.0784,0.0781,0.0769,0.077,0.0788,0.0798,0.0798,0.0816,0.0816,0,0,0,0.0752,0.0739,0.0758,0.0748,0.0765,0.0789,0.0792,0.0781,0.0789,0.077,0.0788,0.0798,0.0798,0.0815,0.0816,0.087,0,0,0,0.075,0.0738,0.0757,0.0748,0.0766,0.0784,0.0789,0.0789,0.079,0.0788,0.0798,0.0798,0.0815,0.0815,0.0868,0.0875,0,0,0,0.0737,0.0736,0.0743,0.0747,0.0772,0.0785,0.0792,0.079,0.0801,0.0799,0.0797,0.0814,0.0815,0.0865,0.0872,0.0934,0,0,0,0.0718,0.0712,0.0743,0.0743,0.0772,0.08,0.0793,0.0812,0.0813,0.0798,0.0815,0.0816,0.0865,0.087,0.0932,0.0987,0.1003,0,0,0.0697,0.0709,0.0711,0.0739,0.0762,0.0793,0.0823,0.0825,0.0819,0.0809,0.081,0.0868,0.0872,0.0934,0.1042,0.1057,0,0,0,0.0695,0.0699,0.0709,0.0734,0.0765,0.081,0.0828,0.0847,0.0873,0.0827,0.0873,0.0873,0.0911,0.0938,0.0951,0.082,0.082,0.082,0.082,0.0659,0.0684,0.0694,0.0733,0.0761,0.0825,0.0865,0.0896,0.0886,0.0919,0.0921,0.1007,0.1037,0.1047,0.0934,0.0934,0.0934,0.0935,0.0935,0.0643,0.0652,0.0695,0.0717,0.0778,0.082,0.0899,0.0931,0.1005,0.0974,0.101,0.0998,0.1064,0.0939,0.0938,0.0938,0.0937,0.0937,0.0937,0.0629,0.0634,0.0661,0.0705,0.0765,0.0835,0.092,0.0982,0.1041,0.1086,0.1137,0.1136,0.1043,0.1122,0.1122,0.1122,0.1123,0.1123,0.1123,0.0604,0.0625,0.0644,0.0695,0.0734,0.0813,0.0942,0.102,0.1146,0.1193,0.1194,0.107,0.1064,0.1054,0.1128,0.1127,0.1127,0.1126,0.1126,0.0574,0.059,0.0612,0.0644,0.0731,0.0816,0.093,0.1136,0.1236,0.1313,0.1265,0.126,0.1249,0.1239,0.1233,0.1349,0.1349,0.1349,0.1349,0.0547,0.0558,0.0584,0.0627,0.07,0.0814,0.0999,0.1172,0.1315,0.1334,0.1334,0.1292,0.1285,0.1272,0.1261,0.1253,0.1375,0.1375,0.1374,0.052,0.0535,0.0546,0.0601,0.0685,0.0827,0.1008,0.1137,0.1226,0.1368,0.1262,0.1366,0.1304,0.1293,0.1268,0.1253,0.1238,0,0]},{"header":{"parameterUnit":"m.s-1","parameterCategory":2,"la1":30.2992,"la2":30.254,"lo1":-89.0895,"lo2":-89.0443,"dy":0.0025,"dx":0.0025,"nx":19,"ny":19,"refTime":"2026-05-12T09:00:00:Z","depth":"2","parameterNumber":3,"parameterNumberName":"V-component_of_CURRENTS"},"data":[0,0,0,-0.004,-0.0042,-0.0151,-0.0152,-0.0296,-0.0297,0,0,0,0,0,0,0,0,0,0,0,-0.0005,-0.0005,-0.0039,-0.0042,-0.0151,-0.0152,-0.0295,-0.0297,0,0,0,0,0,0,0,0,0,0,0,-0.0004,-0.0005,-0.0006,-0.0042,-0.0151,-0.0152,-0.0295,-0.0213,0,0,0,0,0,0,0,0,0,0,-0.0107,-0.0069,-0.0005,-0.0006,-0.0043,-0.0151,-0.0152,-0.0209,-0.0218,-0.0245,0,-0.0263,0,-0.028,-0.0306,-0.0306,0,0,0,-0.0048,-0.0062,-0.0093,-0.0006,-0.0044,-0.0151,-0.0104,-0.0214,-0.0224,-0.0257,-0.0265,-0.0271,-0.0283,-0.0307,-0.0307,-0.0391,-0.0391,0,0,-0.0042,-0.0025,-0.0085,-0.0099,-0.0074,-0.01,-0.0107,-0.022,-0.0231,-0.0266,-0.0274,-0.0285,-0.0308,-0.0309,-0.0391,-0.0391,0,0,0,-0.0021,-0.0021,-0.0049,-0.0093,-0.0111,-0.0103,-0.0111,-0.0226,-0.0236,-0.0276,-0.0287,-0.0308,-0.031,-0.0391,-0.0391,-0.0345,0,0,0,-0.0017,-0.0008,-0.0046,-0.0037,-0.0109,-0.0169,-0.0114,-0.0228,-0.0242,-0.0286,-0.0309,-0.0312,-0.0391,-0.0391,-0.0346,-0.0298,0,0,0,0.0001,-0.0006,-0.0019,-0.0036,-0.008,-0.0167,-0.0184,-0.0232,-0.0248,-0.0307,-0.0312,-0.0391,-0.0391,-0.0348,-0.0301,-0.0283,0,0,0,0.0023,0.0016,-0.0019,-0.0031,-0.0079,-0.0116,-0.0184,-0.023,-0.0274,-0.0309,-0.0391,-0.0391,-0.0348,-0.0303,-0.0285,-0.0259,-0.0248,0,0,0.0034,0.0018,0.0012,-0.0021,-0.0035,-0.0101,-0.0129,-0.0223,-0.028,-0.0356,-0.0358,-0.0346,-0.0302,-0.0283,-0.0244,-0.0233,0,0,0,0.0029,0.0027,0.0016,-0.0007,-0.0045,-0.0082,-0.0168,-0.021,-0.0291,-0.0305,-0.0353,-0.0326,-0.0317,-0.0306,-0.0297,-0.039,-0.039,-0.039,-0.039,0.0075,0.0053,0.0053,0.002,-0.0006,-0.0078,-0.0116,-0.0191,-0.026,-0.0287,-0.0296,-0.0255,-0.0244,-0.0237,-0.032,-0.0319,-0.0319,-0.0319,-0.0319,0.0109,0.0107,0.0084,0.0074,0.0032,-0.0003,-0.0085,-0.0141,-0.0201,-0.0256,-0.0251,-0.0266,-0.0225,-0.0315,-0.0316,-0.0317,-0.0317,-0.0317,-0.0317,0.014,0.0136,0.0127,0.0119,0.01,0.004,0.0034,-0.0047,-0.014,-0.0144,-0.0158,-0.0159,-0.0214,-0.0158,-0.0158,-0.0157,-0.0157,-0.0157,-0.0157,0.0168,0.0164,0.0177,0.0166,0.0167,0.0157,0.0102,0.0075,-0.0006,-0.0084,-0.0085,-0.0201,-0.0206,-0.0205,-0.0152,-0.0153,-0.0154,-0.0154,-0.0154,0.0186,0.0193,0.0219,0.023,0.0251,0.0294,0.0244,0.0197,0.0146,0.011,-0.006,-0.0064,-0.0073,-0.008,-0.0077,0.0006,0.0006,0.0006,0.0006,0.0205,0.0209,0.0256,0.0296,0.0335,0.0356,0.044,0.0421,0.0259,0.0158,0.0152,0.0124,0.0113,0.0112,0.01,0.0106,0.0238,0.0238,0.0239,0.0219,0.0233,0.0273,0.0316,0.0368,0.0433,0.0559,0.0575,0.0331,0.0251,0.0227,0.0015,-0.0048,-0.0056,-0.0077,-0.0089,-0.0087,0,0]}],[{"header":{"parameterUnit":"m.s-1","parameterCategory":2,"la1":30.2992,"la2":30.254,"lo1":-89.0895,"lo2":-89.0443,"dy":0.0025,"dx":0.0025,"nx":19,"ny":19,"refTime":"2026-05-12T09:00:00:Z","depth":"4","parameterNumber":2,"parameterNumberName":"U-component_of_CURRENTS"},"data":[0,0,0,0.0423,0.0426,0.0502,0.0502,0.0434,0.0434,0,0,0,0,0,0,0,0,0,0,0,0.0381,0.0382,0.0423,0.0426,0.0502,0.0502,0.0435,0.0434,0,0,0,0,0,0,0,0,0,0,0,0.038,0.0382,0.0383,0.0427,0.0502,0.0502,0.0435,0.0411,0,0,0,0,0,0,0,0,0,0,0.0354,0.0358,0.0381,0.0383,0.0427,0.0503,0.0502,0.0411,0.0412,0.0362,0,0.0391,0,0.0429,0.0428,0.0428,0,0,0,0.0395,0.0358,0.0379,0.0383,0.0428,0.0503,0.0459,0.0413,0.0414,0.0363,0.0391,0.039,0.0428,0.0428,0.0427,0.0339,0.0339,0,0,0.0391,0.0385,0.0379,0.038,0.0468,0.0457,0.0462,0.0415,0.0419,0.0391,0.039,0.0426,0.0427,0.0427,0.0339,0.0339,0,0,0,0.04,0.0383,0.0408,0.0381,0.0419,0.046,0.0466,0.0421,0.0431,0.039,0.0426,0.0427,0.0426,0.034,0.0339,0.035,0,0,0,0.0396,0.039,0.0406,0.0402,0.0422,0.0448,0.0473,0.0433,0.0431,0.0426,0.0427,0.0425,0.034,0.034,0.0351,0.0372,0,0,0,0.0374,0.0388,0.0404,0.0402,0.0452,0.045,0.0457,0.0434,0.0453,0.0428,0.0425,0.0341,0.034,0.0352,0.0372,0.0443,0,0,0,0.0354,0.0378,0.0404,0.0432,0.0452,0.0458,0.0458,0.044,0.0414,0.0426,0.034,0.0339,0.0352,0.0372,0.0442,0.0398,0,0,0,0.0367,0.038,0.0392,0.0417,0.0434,0.0445,0.0434,0.0398,0.0384,0.0339,0.0339,0.0351,0.0372,0.0443,0.0347,0,0,0,0,0.0383,0.0392,0.04,0.0424,0.0433,0.0431,0.0409,0.0398,0.0362,0.0377,0.033,0.0343,0.0388,0.0356,0.0335,0.0335,0.0335,0.0336,0.0336,0.0366,0.038,0.0395,0.0407,0.0405,0.04,0.0393,0.0369,0.0342,0.0324,0.0336,0.0376,0.0336,0.0309,0.0309,0.0309,0.0309,0.0309,0.0309,0.0368,0.0375,0.0387,0.0397,0.0391,0.0365,0.0362,0.0351,0.0369,0.0326,0.037,0.0347,0.031,0.031,0.031,0.031,0.031,0.031,0.031,0.0346,0.0354,0.0362,0.0376,0.0361,0.0348,0.039,0.0377,0.0383,0.0414,0.0418,0.0407,0.0429,0.0446,0.0447,0.0447,0.0447,0.0448,0.0448,0.0316,0.0335,0.0342,0.0354,0.0351,0.0364,0.0407,0.0457,0.0474,0.044,0.0434,0.0423,0.0419,0.0437,0.0454,0.0453,0.0452,0.0451,0.0451,0.0291,0.03,0.0324,0.0331,0.0358,0.0369,0.0443,0.0514,0.0581,0.0592,0.0471,0.0469,0.0479,0.0475,0.0495,0.053,0.053,0.0529,0,0.0264,0.0275,0.0311,0.0336,0.036,0.0375,0.0458,0.053,0.0532,0.047,0.0579,0.0437,0.0435,0.0441,0.0436,0.0457,0,0,0,0.0244,0.0266,0.0285,0.0325,0.0338,0.0391,0.0469,0.0471,0.0506,0.0584,0.0518,0.0521,0.0557,0.0471,0.0483,0.0477,0.0509,0,0]},{"header":{"parameterUnit":"m.s-1","parameterCategory":2,"la1":30.2992,"la2":30.254,"lo1":-89.0895,"lo2":-89.0443,"dy":0.0025,"dx":0.0025,"nx":19,"ny":19,"refTime":"2026-05-12T09:00:00:Z","depth":"4","parameterNumber":3,"parameterNumberName":"V-component_of_CURRENTS"},"data":[0,0,0,0.0304,0.0305,0.0311,0.0311,0.0209,0.0208,0,0,0,0,0,0,0,0,0,0,0,0.0293,0.0293,0.0304,0.0305,0.0311,0.0311,0.0209,0.0208,0,0,0,0,0,0,0,0,0,0,0,0.0293,0.0293,0.0294,0.0305,0.0311,0.0311,0.0209,0.0227,0,0,0,0,0,0,0,0,0,0,0.0232,0.0253,0.0293,0.0294,0.0305,0.0311,0.0311,0.0229,0.0226,0.0181,0,0.0194,0,0.021,0.0201,0.02,0,0,0,0.0284,0.0256,0.0255,0.0294,0.0306,0.0312,0.0302,0.0228,0.0224,0.0177,0.0193,0.019,0.0208,0.02,0.0199,0.0116,0.0116,0,0,0.0283,0.0289,0.0258,0.0254,0.032,0.0302,0.0303,0.0227,0.0227,0.0193,0.0189,0.0206,0.0199,0.0198,0.0116,0.0116,0,0,0,0.0297,0.0289,0.0292,0.0257,0.0273,0.0303,0.0304,0.023,0.0232,0.0188,0.0205,0.0199,0.0197,0.0116,0.0116,0.0147,0,0,0,0.0295,0.0299,0.0293,0.0295,0.0276,0.027,0.0309,0.0236,0.0229,0.0206,0.0199,0.0196,0.0116,0.0116,0.0146,0.0136,0,0,0,0.029,0.0298,0.0303,0.0296,0.031,0.0272,0.0269,0.0235,0.024,0.02,0.0196,0.0116,0.0116,0.0145,0.0136,0.011,0,0,0,0.0289,0.0283,0.0303,0.029,0.031,0.0275,0.027,0.0247,0.0216,0.0198,0.0116,0.0116,0.0145,0.0136,0.011,0.0121,0,0,0,0.0273,0.0282,0.0267,0.0285,0.0243,0.0272,0.0232,0.0204,0.0195,0.013,0.0129,0.0146,0.0136,0.011,0.0109,0,0,0,0,0.0255,0.0245,0.0232,0.022,0.0208,0.0202,0.0193,0.0193,0.0176,0.0182,0.0133,0.0125,0.0108,0.0115,0.0115,0.0115,0.0115,0.0115,0.0115,0.0218,0.0207,0.0173,0.0159,0.0147,0.015,0.0144,0.0144,0.0146,0.0159,0.0142,0.0128,0.0138,0.0143,0.0144,0.0144,0.0144,0.0144,0.0144,0.0164,0.0136,0.0134,0.0104,0.0104,0.0092,0.0101,0.0127,0.0121,0.0143,0.0126,0.0137,0.0147,0.0146,0.0146,0.0145,0.0145,0.0145,0.0145,0.0118,0.0106,0.01,0.0071,0.0067,0.0083,0.0095,0.0116,0.0129,0.0129,0.0124,0.0126,0.0131,0.0133,0.0133,0.0133,0.0133,0.0133,0.0133,0.0078,0.0068,0.0054,0.0038,0.0043,0.0068,0.0101,0.0108,0.0121,0.0133,0.0138,0.0123,0.0124,0.0129,0.0131,0.0131,0.0131,0.0132,0.0132,0.0018,0.0034,0.0014,0.0014,0.0029,0.005,0.0079,0.0105,0.0098,0.0086,0.012,0.0121,0.0098,0.0099,0.0102,0.0096,0.0096,0.0096,0,-0.0005,-0.0007,0.0,0.0007,0.0024,0.0048,0.0081,0.0095,0.0089,0.0097,0.0077,0.0115,0.0116,0.0091,0.0091,0.0095,0,0,0,-0.003,-0.0015,-0.0006,0.0012,0.0036,0.0072,0.01,0.0111,0.0091,0.0091,0.0099,0.0098,0.0112,0.0124,0.0091,0.0091,0.0097,0,0]}]]